Tracking 29892 objects as of 21-Nov-2024
HD Live streaming from Space Station
objects crossing your sky now

STARLINK-11160

Track STARLINK-11160 now!
10-day predictions
STARLINK-11160 is classified as:


NORAD ID: 60125
Int'l Code: 2024-118N
Perigee: 366.2 km
Apogee: 367.4 km
Inclination: 53.2 °
Period: 91.7 minutes
Semi major axis: 6737 km
RCS: Unknown
Launch date: June 24, 2024
Source: United States (US)
Launch site: AIR FORCE WESTERN TEST RANGE (AFWTR)
Your satellite tracking list
Your tracking list is empty




NASA's NSSDC Master Catalog

Two Line Element Set (TLE):
1 60125U 24118N   24325.21594590  .00049029  00000-0  40684-3 0  9990
2 60125  53.1558  40.1100 0000843  56.6742 303.4357 15.69728444 23475
Source of the keplerian elements: AFSPC